This is the latest recevied weather packets stored in our database for station/object N8HON. If no packets are shown the sender has not sent any weather packets the latest 10 day(s).
| Time | Temp. | Humidity | Pressure | Rain* | Wind** | Luminosity | Snow |
|---|---|---|---|---|---|---|---|
| 1778115058 | 15° C | 86% | 1009 hPa | 0 mm | - | 0 W/m² | - |
| 1778114755 | 15° C | 85% | 1008.4 hPa | 0 mm | - | 0 W/m² | - |
| 1778114453 | 15° C | 84% | 1008.3 hPa | 0 mm | - | 0 W/m² | - |
| 1778114148 | 15° C | 82% | 1009.5 hPa | 0 mm | - | 0 W/m² | - |
| 1778113843 | 15° C | 83% | 1009.7 hPa | 0 mm | - | 0 W/m² | - |
| 1778113540 | 15.56° C | 82% | 1009.5 hPa | 0 mm | - | 0 W/m² | - |
| 1778113236 | 15.56° C | 82% | 1009.5 hPa | 0 mm | - | 0 W/m² | - |
| 1778112933 | 15.56° C | 81% | 1009.5 hPa | 0 mm | - | 0 W/m² | - |
| 1778112631 | 15.56° C | 82% | 1009.7 hPa | 0 mm | - | 0 W/m² | - |
| 1778112326 | 15.56° C | 81% | 1009.6 hPa | 0 mm | - | 2 W/m² | - |
| 1778112022 | 15.56° C | 81% | 1009.2 hPa | 0 mm | - | 4 W/m² | - |
| 1778111720 | 15.56° C | 80% | 1009.2 hPa | 0 mm | - | 6 W/m² | - |
| 1778111415 | 15.56° C | 81% | 1009.2 hPa | 0 mm | - | 8 W/m² | - |
| 1778111113 | 16.11° C | 81% | 1009.3 hPa | 0 mm | - | 13 W/m² | - |
| 1778110810 | 16.11° C | 81% | 1009.3 hPa | 0 mm | - | 19 W/m² | - |
| 1778110507 | 16.67° C | 79% | 1009.2 hPa | 0 mm | - | 20 W/m² | - |
| 1778110203 | 16.67° C | 78% | 1009.4 hPa | 0 mm | - | 19 W/m² | - |
| 1778109900 | 17.22° C | 78% | 1009.6 hPa | 0 mm | - | 28 W/m² | - |
| 1778109595 | 17.22° C | 78% | 1009.3 hPa | 0 mm | - | 57 W/m² | - |
| 1778109293 | 17.22° C | 77% | 1009.3 hPa | 0 mm | - | 43 W/m² | - |
| 1778108990 | 17.78° C | 77% | 1009 hPa | 0 mm | - | 51 W/m² | - |
| 1778108686 | 17.78° C | 76% | 1009.1 hPa | 0 mm | - | 76 W/m² | - |
| 1778108383 | 18.33° C | 76% | 1008.8 hPa | 0 mm | - | 47 W/m² | - |
| 1778108081 | 18.89° C | 75% | 1008.8 hPa | 0 mm | - | 93 W/m² | - |
| 1778107777 | 18.89° C | 74% | 1008.9 hPa | 0 mm | - | 73 W/m² | - |
* Rain latest hour (hover to see other rain measurements)
** Current wind speed in m/s (hover to see current wind gust speed)